Weather in Cabimas

Venezuela     10°26′04″N   71°23′35″W
В апреле 2022 года жителям России запретили посещать сайт meteo.paraplan.net по решению Генеральной прокуратуры. Аудитория сайта уменьшилась в 10 раз. Владельцы сайта не видят смысла в поддержке погодного сервера в таких условиях. Сайт будет закрыт в октябре.
temp.,
°C
wind,
m/s
gust,
m/s
humid.,
%
clouds,
%
prec.,
mm/h
press.,
hPa
HPBL,
m
30 september, fri
fri3023:00+28n577696 1.8 1010389
02:00+26nne4682100 4.5 1008214
05:00+25sse5589100 9.8 1009241
08:00+24sse4685100 15.4 1010240
11:00+26ssw6884100 0.3 1011511
14:00+27ssw4577100 0.3 1008786
17:00+28s3478100 0.0 1006692
20:00+27se2279100 0.0 1008366
1 october, sat
sat123:00+26ene1179100 0.0 1009156
02:00+26n2280100 0.3 1009197
05:00+26nne2275100 0.3 1009294
08:00+26se1175100 0.3 1011200
11:00+28ssw3473100 0.4 1012714
14:00+27ssw2476100 1.4 1010551
17:00+29s2267100 0.0 1009745
20:00+28wsw227145 0.0 1011365
2 october, sun
sun223:00+27nw1176100 0.0 1012176
02:00+26n228235 0.4 1011104
05:00+26nne118170 0.8 1012150
08:00+26ne11795 0.9 1013213
11:00+28wsw117035 0.0 1014662
14:00+29wsw227040 0.1 1011423
17:00+30n456717 0.1 1010551
20:00+28ne577594 0.4 1012330
3 october, mon
mon323:00+27wsw2279100 1.9 1014208
02:00+27sw2379100 4.6 1012318
05:00+25se2387100 1.4 1012261
08:00+27s3481100 1.4 1013528
11:00+29s447198 0.1 1013975
14:00+29sw2269100 0.1 1010640
17:00+30nnw126860 0.1 1009417
20:00+28nne577826 0.2 1010343
4 october, tue
tue423:00+27nne58816 0.4 1011385
02:00+27nne58847 0.6 1009478
05:00+26ene45889 2.0 1009275
08:00+26se238747 2.3 1011283
11:00+30sse44698 0.3 1012954
14:00+30s336696 0.3 1009617
17:00+30n23675 0.0 1007518
20:00+28nne577512 0.8 1009382